LIMPLICA

Guest
Details From LIMP - Parma
To LICA - Lamezia Terme
Flight Number -
Tags Generated
Created
Modified
Stats Distance 443 nm / 821 km
Max Altitude 0 ft / 0 m
Waypoints 4
Social Downloads 3
Likes 0
Share VATSIM

Download

Looking for another format? Having issues loading an existing format? Contact us
Advertisement - Login to hide

Notes

Generated

Route

LIMP VELIM SOMAS LICA

ID Type Via Altitude Latitude Longitude Leg Dist Tot Dist Heading (true) Name
O LIMP APT - 0 ft / 0 m 44.81766˚ 10.29313˚ - 0 nm - -
VELIM FIX - 0 ft / 0 m 42.14222˚ 13.26528˚ 206 nm 206 nm 140° / 142° -
SOMAS FIX - 0 ft / 0 m 39.12639˚ 15.96889˚ 219 nm 425 nm 145° / 147° -
O LICA APT - 0 ft / 0 m 38.90699˚ 16.22859˚ 17 nm 443 nm 137° / 137° -

Altitude Profile

Advertisement - Login to hide

Weather


0- 5 10 15 20 25 30 35+ Temperature / ° C

Clouds and Precipitation
Forecast for 2018-05-21 18:00 UTC. Updated 2 hours ago

Ground ~20,000 ft ~40,000 ft Winds

LIMP

Details ICAO LIMP (PMF)
Name PARMA
Region Italy
Timezone Europe/Rome (UTC+2.0)
Stats Elevation 161 ft / 49 m (AMSL)
Location 44.826774° 10.297108°
Runways 1
Magnetic Variation 2.764° E

METAR

LIMP 211750Z 33010KT 9999 -TSRA BKN050CB 17/14 Q1013

Decode

TAF

TAF TAF LIMP 211700Z 2118/2218 VRB05KT 9999 SCT050 TEMPO 2118/2202 24010KT 4000 TSRA BKN010CB BECMG 2202/2204 08010KT RA BKN012 BKN040 TEMPO 2204/2218 4000 TSRA BKN008CB

Decode

Departure Runways

ID Width Length Bearing (true) Bearing (mag) Surface Threshold Offset Overrun Length
02 148 ft / 45 m 6,966 ft / 2,123 m 17.20° 14.44° Asphalt 702 ft / 214 m 0 ft / 0 m
20 148 ft / 45 m 6,966 ft / 2,123 m 197.20° 194.44° Asphalt 597 ft / 182 m 0 ft / 0 m

LICA

Details ICAO LICA (SUF)
Name Lamezia Terme
Region Italy
Timezone Europe/Rome (UTC+2.0)
Stats Elevation 39 ft / 12 m (AMSL)
Location 38.905394° 16.242271°
Runways 1
Magnetic Variation 3.537° E

METAR

LICA 211850Z VRB01KT CAVOK 20/17 Q1012

Decode

TAF

TAF LICA 211700Z 2118/2218 VRB05KT 9999 SCT030 BECMG 2210/2212 27010KT BECMG 2216/2218 VRB05KT

Decode

Destination Runways

ID Width Length Bearing (true) Bearing (mag) Surface Threshold Offset Overrun Length
10 148 ft / 45 m 7,858 ft / 2,395 m 98.54° 95.00° Asphalt 348 ft / 106 m 0 ft / 0 m
28 148 ft / 45 m 7,858 ft / 2,395 m 278.55° 275.01° Asphalt 351 ft / 107 m 0 ft / 0 m

Approach Navaids

Runway Type Ident Frequency Range Bearing (true) Bearing (mag) Slope Elevation
28 Localiser LAM 110.30 MHz 18 nm / 33 km 278.54° 275.00° - 21 ft / 6 m (AMSL)
28 Glidescope LAM 110.30 MHz 10 nm / 19 km 278.55° 275.01° 3.00° 21 ft / 6 m (AMSL)
28 DME LAM 110.30 MHz 25 nm / 46 km - - - 21 ft / 6 m (AMSL)

Popular Alternatives